{"data":{"norad_id":65723,"epoch":"2026-05-25T00:42:59.363136Z","epoch_age_seconds":72179,"freshness":"FRESH","line1":"1 65723U 25214M   26145.02985374  .00001437  00000+0  20123-3 0  9998","line2":"2 65723  49.9847  55.2178 0009865 133.4351 226.7409 14.83263190 36075","mean_motion":14.8326319,"eccentricity":0.0009865,"inclination_deg":49.9847,"raan_deg":55.2178,"arg_perigee_deg":133.4351,"mean_anomaly_deg":226.7409,"bstar":0.00020123,"rev_number":3607,"period_min":97.083242522859,"perigee_km":612.1400005399,"apogee_km":625.94543612417,"semimajor_km":6997.179718332,"source":"CELESTRAK","updated_at":"2026-05-25T13:38:05.629609Z"}}